[[{"header":{"parameterUnit":"m.s-1","parameterCategory":2,"la1":30.2991,"la2":30.254,"lo1":-89.0895,"lo2":-89.0444,"dy":0.0017,"dx":0.0017,"nx":28,"ny":28,"refTime":"2025-09-16T09:00:00:Z","depth":"0","parameterNumber":2,"parameterNumberName":"U-component_of_CURRENTS"},"data":[0,0,0,0,0,0,0,0,0,0,0,0,0,0,0,0,0,0,0,0,0,0,0,0,0,0,0,0,0,0,0,0,0,0,0,0,0,0,0,0,0,0,0,0,0,0,0,0,0,0,0,0,0,0,0,0,0,0,0.1563,0.1563,0,0.1509,0.1508,0.1507,0.1463,0.1463,0.1463,0.1463,0.1376,0.1374,0.1372,0,0,0,0,0,0,0,0,0,0,0,0,0,0.1551,0.1552,0.1563,0.1563,0.1563,0.1509,0.1508,0.1507,0.1463,0.1463,0.1463,0.1463,0.1377,0.1374,0.1371,0,0,0,0,0,0,0,0,0,0,0,0,0,0.1529,0.1552,0.1563,0.1537,0.1535,0.1509,0.1508,0.1507,0.1463,0.1463,0.1463,0.1463,0.1378,0.1374,0.1371,0.1353,0,0,0.1361,0.1359,0,0,0,0,0,0,0,0,0.153,0.1529,0.1542,0.1539,0.1536,0.1496,0.1472,0.1455,0.1463,0.1486,0.1463,0.1463,0.1416,0.141,0.1394,0.1349,0.1345,0.1361,0.1359,0.1357,0.1356,0,0,0,0,0,0,0,0.1532,0.1531,0.1538,0.1541,0.1538,0.1502,0.1499,0.1468,0.1448,0.1484,0.1482,0.1482,0.1414,0.1397,0.1392,0.1344,0.1361,0.1358,0.1356,0.1354,0.1473,0.1478,0,0,0,0,0,0,0.1552,0.1533,0.1539,0.1536,0.1538,0.1503,0.1499,0.1506,0.1449,0.1442,0.1482,0.148,0.1403,0.1396,0.1389,0.1478,0.1357,0.1354,0.1352,0.1468,0.1474,0.148,0,0,0,0,0,0,0.1552,0.1553,0.1542,0.1536,0.1533,0.1504,0.1511,0.1505,0.1498,0.1449,0.1441,0.1484,0.1403,0.1393,0.1404,0.147,0.1352,0.1349,0.1462,0.147,0.1477,0.1583,0,0,0,0,0,0,0.1551,0.1553,0.1559,0.1538,0.1534,0.154,0.1512,0.1504,0.15,0.1497,0.1448,0.1439,0.1402,0.141,0.1401,0.1463,0.1347,0.1455,0.1466,0.1475,0.1573,0.1594,0.1611,0,0,0,0,0,0.1551,0.1557,0.156,0.156,0.1545,0.1541,0.1535,0.1511,0.1501,0.1503,0.1495,0.1441,0.1468,0.141,0.1398,0.1461,0.1451,0.1463,0.1474,0.1565,0.159,0.1611,0,0,0,0,0,0,0.1536,0.1553,0.1555,0.1561,0.1561,0.1535,0.1531,0.1522,0.1513,0.1513,0.147,0.1462,0.1506,0.1481,0.1419,0.1539,0.1465,0.1475,0.1539,0.1561,0.158,0.1605,0.1344,0,0,0,0,0,0.1543,0.1561,0.1565,0.1569,0.1575,0.1558,0.1552,0.1543,0.1536,0.153,0.1504,0.1511,0.1545,0.1547,0.1551,0.1586,0.1656,0.1639,0.1658,0.1674,0.1697,0.1938,0.1981,0.1518,0.1518,0.1518,0,0,0.1533,0.1548,0.1553,0.1569,0.1564,0.1583,0.1553,0.1555,0.1581,0.1523,0.1545,0.1555,0.1571,0.1628,0.1649,0.1611,0.1836,0.1689,0.1701,0.1716,0.1955,0.2,0.204,0.1526,0.1525,0.1523,0,0,0.1532,0.1545,0.1565,0.1579,0.1594,0.1595,0.1606,0.1599,0.161,0.1632,0.1638,0.1705,0.1689,0.1755,0.1781,0.1914,0.1927,0.1915,0.2021,0.2255,0.2295,0.2331,0.2438,0.2483,0.1927,0.1928,0.1928,0,0.1514,0.1558,0.1565,0.1593,0.1618,0.1612,0.1646,0.1656,0.1656,0.1709,0.1655,0.1783,0.1769,0.1928,0.1972,0.1955,0.2053,0.1916,0.2281,0.2318,0.2353,0.2454,0.2503,0.1934,0.1933,0.1933,0.1932,0,0.1541,0.1577,0.159,0.1642,0.1662,0.169,0.1721,0.1754,0.1766,0.1802,0.1935,0.1951,0.205,0.2066,0.2037,0.2294,0.2267,0.2272,0.2214,0.2406,0.25,0.2548,0.1944,0.1941,0.1939,0.1938,0,0,0.1521,0.1594,0.1604,0.1661,0.1703,0.1735,0.1798,0.1893,0.1993,0.2009,0.2168,0.2231,0.2274,0.2314,0.2331,0.2503,0.2793,0.2488,0.2498,0.2576,0.3253,0.3203,0.3248,0.2882,0.2892,0.29,0.3201,0,0.1551,0.1628,0.1653,0.1746,0.1809,0.1845,0.1925,0.2012,0.2081,0.2226,0.2319,0.2455,0.2365,0.2446,0.2609,0.2755,0.2934,0.2706,0.307,0.3079,0.3001,0.331,0.3199,0.3459,0.3248,0.3256,0.3262,0,0.1611,0.1659,0.1753,0.1876,0.1906,0.1955,0.2132,0.2197,0.2388,0.2458,0.2612,0.2679,0.2902,0.2819,0.3178,0.3043,0.3169,0.3262,0.3278,0.3233,0.3124,0.3247,0.3555,0.3458,0.3336,0.333,0.3325,0,0.1694,0.1757,0.185,0.1883,0.1996,0.2066,0.2125,0.2288,0.2412,0.2638,0.2766,0.2996,0.3137,0.3363,0.347,0.3394,0.3859,0.3789,0.3857,0.3847,0.3826,0.38,0.4076,0.4123,0.4122,0.4121,0.412,0,0.1796,0.1895,0.1894,0.1971,0.2119,0.214,0.234,0.2436,0.2618,0.2792,0.2905,0.3077,0.33,0.3527,0.3628,0.3881,0.4005,0.3954,0.3989,0.385,0.3825,0.379,0.3681,0.4132,0.413,0.4128,0.4126,0,0.2002,0.1976,0.2116,0.2173,0.2195,0.2323,0.2466,0.2592,0.2731,0.2963,0.305,0.3255,0.3518,0.3697,0.4052,0.4085,0.4228,0.4379,0.4122,0.4122,0.4065,0.3964,0.4098,0.398,0.4556,0.4557,0.4559,0,0.2168,0.2228,0.2288,0.2325,0.2372,0.2501,0.258,0.269,0.2792,0.3037,0.3144,0.3438,0.3607,0.4054,0.422,0.4474,0.4301,0.4495,0.4352,0.4135,0.4051,0.3804,0.3675,0.434,0.4339,0.4339,0.4338,0,0.2451,0.2434,0.2492,0.2544,0.2602,0.2694,0.2769,0.2866,0.2962,0.3124,0.3278,0.3433,0.3801,0.4015,0.4326,0.4438,0.4269,0.4491,0.4418,0.4062,0.3675,0.3549,0.3955,0.4334,0.4335,0.4335,0.4335,0.4335,0.2632,0.2696,0.2655,0.2727,0.2769,0.2776,0.2822,0.2867,0.2994,0.3119,0.3286,0.3473,0.3805,0.4222,0.431,0.438,0.4265,0.4319,0.4258,0.4061,0.3836,0.4167,0.4482,0.4483,0.4484,0.4485,0.4486,0,0.2741,0.2728,0.2803,0.2792,0.2803,0.2811,0.2848,0.2834,0.288,0.3072,0.3196,0.3534,0.3802,0.4039,0.4244,0.4173,0.3965,0.4081,0.374,0.3659,0.4148,0.4026,0.4074,0.4074,0.4074,0.4075,0.4075,0.4075,0.2766,0.2777,0.2769,0.2748,0.2743,0.2688,0.2668,0.2673,0.2765,0.2909,0.308,0.329,0.3632,0.3981,0.4013,0.3937,0.3627,0.3509,0.3451,0.3812,0.3827,0.3842,0.371,0.3691,0.369,0.2834,0.2828,0.2823]},{"header":{"parameterUnit":"m.s-1","parameterCategory":2,"la1":30.2991,"la2":30.254,"lo1":-89.0895,"lo2":-89.0444,"dy":0.0017,"dx":0.0017,"nx":28,"ny":28,"refTime":"2025-09-16T09:00:00:Z","depth":"0","parameterNumber":3,"parameterNumberName":"V-component_of_CURRENTS"},"data":[0,0,0,0,0,0,0,0,0,0,0,0,0,0,0,0,0,0,0,0,0,0,0,0,0,0,0,0,0,0,0,0,0,0,0,0,0,0,0,0,0,0,0,0,0,0,0,0,0,0,0,0,0,0,0,0,0,0,-0.0735,-0.0736,0,-0.084,-0.0841,-0.0842,-0.0881,-0.088,-0.088,-0.0879,-0.0879,-0.088,-0.088,0,0,0,0,0,0,0,0,0,0,0,0,0,-0.0639,-0.064,-0.0735,-0.0736,-0.0738,-0.084,-0.0841,-0.0843,-0.0881,-0.088,-0.088,-0.0879,-0.0879,-0.088,-0.088,0,0,0,0,0,0,0,0,0,0,0,0,0,-0.0707,-0.0641,-0.0735,-0.0768,-0.0771,-0.0839,-0.0841,-0.0843,-0.0881,-0.088,-0.0879,-0.0879,-0.0879,-0.088,-0.088,-0.09,0,0,-0.0883,-0.0883,0,0,0,0,0,0,0,0,-0.0703,-0.0711,-0.0762,-0.0765,-0.077,-0.0845,-0.0807,-0.0856,-0.0881,-0.0841,-0.0879,-0.0878,-0.0857,-0.086,-0.0885,-0.09,-0.09,-0.0883,-0.0883,-0.0883,-0.0884,0,0,0,0,0,0,0,-0.0699,-0.0707,-0.0778,-0.0763,-0.0768,-0.0801,-0.0809,-0.0818,-0.0852,-0.0845,-0.0847,-0.0856,-0.0859,-0.0885,-0.0885,-0.09,-0.0883,-0.0883,-0.0884,-0.0884,-0.0827,-0.0826,0,0,0,0,0,0,-0.068,-0.0702,-0.0775,-0.0781,-0.0732,-0.0803,-0.0812,-0.0823,-0.0854,-0.0858,-0.0857,-0.0858,-0.0884,-0.0884,-0.0885,-0.083,-0.0883,-0.0884,-0.0884,-0.0829,-0.0827,-0.0825,0,0,0,0,0,0,-0.0677,-0.0685,-0.0771,-0.0743,-0.0756,-0.0805,-0.0817,-0.0825,-0.0851,-0.0864,-0.0867,-0.0873,-0.0883,-0.0884,-0.0888,-0.0833,-0.0884,-0.0885,-0.0832,-0.0829,-0.0826,-0.077,0,0,0,0,0,0,-0.0674,-0.0684,-0.069,-0.0741,-0.0756,-0.081,-0.0818,-0.0828,-0.0857,-0.0859,-0.0878,-0.0878,-0.0883,-0.0887,-0.0889,-0.0835,-0.0886,-0.0834,-0.083,-0.0827,-0.0774,-0.0766,-0.0758,0,0,0,0,0,-0.067,-0.068,-0.0689,-0.0698,-0.0761,-0.0811,-0.0822,-0.0855,-0.0858,-0.0874,-0.088,-0.0878,-0.0863,-0.0888,-0.089,-0.0834,-0.0836,-0.0831,-0.0827,-0.0778,-0.0767,-0.0758,0,0,0,0,0,0,-0.0641,-0.0686,-0.0697,-0.072,-0.076,-0.0816,-0.0834,-0.0857,-0.088,-0.0873,-0.0883,-0.0883,-0.0859,-0.086,-0.0887,-0.0803,-0.0837,-0.0833,-0.0798,-0.0789,-0.0781,-0.0695,-0.0886,0,0,0,0,0,-0.0637,-0.0655,-0.0703,-0.0721,-0.0738,-0.0786,-0.081,-0.0833,-0.0859,-0.0871,-0.0881,-0.0869,-0.0844,-0.0831,-0.0828,-0.0801,-0.0737,-0.0756,-0.0747,-0.0741,-0.067,-0.0514,-0.0484,-0.0811,-0.0811,-0.0811,0,0,-0.063,-0.0657,-0.0667,-0.0716,-0.0748,-0.0764,-0.0799,-0.0834,-0.0826,-0.0863,-0.0855,-0.0858,-0.0836,-0.08,-0.0784,-0.0792,-0.0632,-0.0735,-0.073,-0.066,-0.0506,-0.0474,-0.0445,-0.0808,-0.0808,-0.0809,0,0,-0.062,-0.0648,-0.0657,-0.0687,-0.0732,-0.0756,-0.0763,-0.0814,-0.0815,-0.0825,-0.0818,-0.0775,-0.0792,-0.0726,-0.07,-0.064,-0.0605,-0.0654,-0.053,-0.0382,-0.0352,-0.0325,-0.0276,-0.0244,-0.0636,-0.0635,-0.0635,0,-0.0604,-0.0616,-0.0669,-0.0683,-0.0681,-0.0744,-0.0734,-0.0757,-0.0798,-0.0741,-0.081,-0.0704,-0.0729,-0.0576,-0.0573,-0.0612,-0.0558,-0.0578,-0.0367,-0.0338,-0.0311,-0.0266,-0.0232,-0.0632,-0.0633,-0.0633,-0.0633,0,-0.0599,-0.0605,-0.0612,-0.0634,-0.0649,-0.0656,-0.068,-0.0671,-0.0681,-0.0665,-0.0553,-0.057,-0.047,-0.0491,-0.0531,-0.0333,-0.0373,-0.0388,-0.0386,-0.0274,-0.0236,-0.0201,-0.0628,-0.0629,-0.063,-0.063,0,0,-0.0535,-0.0593,-0.0586,-0.0552,-0.061,-0.0592,-0.0575,-0.0514,-0.0399,-0.0446,-0.0268,-0.0273,-0.0239,-0.0203,-0.0215,-0.0112,0.0044,-0.0173,-0.0167,-0.0114,0.0319,0.0208,0.0233,0.0069,0.0077,0.0084,0.0241,0,-0.0492,-0.0475,-0.0526,-0.0465,-0.0433,-0.046,-0.0402,-0.0351,-0.0307,-0.0165,-0.0118,0.0009,-0.014,-0.0059,0.0016,0.0064,0.0151,-0.0,0.0198,0.0204,0.0102,0.0278,0.0188,0.0318,0.0275,0.0281,0.0285,0,-0.0427,-0.042,-0.0361,-0.0289,-0.0272,-0.024,-0.0068,-0.0031,0.0122,0.0174,0.0302,0.0325,0.047,0.0328,0.0489,0.0399,0.0376,0.038,0.0386,0.0315,0.0164,0.0215,0.0383,0.0127,0.0339,0.0334,0.0331,0,-0.0258,-0.0263,-0.0186,-0.0181,-0.0145,-0.0064,-0.0018,0.0112,0.024,0.0434,0.057,0.0696,0.0809,0.0836,0.074,0.0662,0.0904,0.0803,0.0685,0.0671,0.0658,0.0632,0.063,0.0965,0.0965,0.0964,0.0964,0,-0.0132,-0.0048,-0.0089,-0.003,0.0138,0.0105,0.034,0.0405,0.0581,0.0786,0.0783,0.0972,0.0951,0.1027,0.0913,0.0902,0.1041,0.078,0.0759,0.0658,0.0632,0.0456,0.0302,0.097,0.0969,0.0967,0.0966,0,0.0106,0.0044,0.0168,0.0203,0.0231,0.038,0.0534,0.0709,0.0821,0.1095,0.1171,0.1271,0.1345,0.1265,0.132,0.1144,0.0985,0.1076,0.0895,0.085,0.0469,0.0322,0.0387,0.0275,0.1024,0.1023,0.1022,0,0.0251,0.0316,0.0375,0.0444,0.0476,0.0643,0.0765,0.0858,0.1018,0.1264,0.1413,0.1549,0.1638,0.1625,0.1384,0.1233,0.0993,0.1008,0.0856,0.0507,0.0331,0.0229,0.0122,0.0825,0.0823,0.0821,0.0819,0,0.0533,0.0535,0.0603,0.0712,0.0828,0.098,0.1129,0.1277,0.1393,0.1583,0.1776,0.1868,0.1812,0.1643,0.1392,0.1219,0.0783,0.0961,0.072,0.0306,0.0094,-0.0049,0.0571,0.0802,0.0804,0.0805,0.0806,0.0807,0.0747,0.0832,0.0851,0.0976,0.1098,0.1238,0.1365,0.1501,0.1713,0.1924,0.1997,0.2141,0.1859,0.1515,0.1214,0.0606,0.0669,0.0408,0.0295,0.0252,0.0053,0.0576,0.0696,0.0697,0.0698,0.0699,0.07,0,0.0924,0.0951,0.1091,0.118,0.1318,0.134,0.1537,0.1633,0.1813,0.2052,0.2188,0.2175,0.1725,0.1259,0.0496,0.0036,-0.0146,-0.0213,-0.0372,-0.042,0.0167,0.0058,-0.0098,-0.0098,-0.0097,-0.0097,-0.0097,-0.0097,0.0992,0.1083,0.1108,0.1299,0.1383,0.1526,0.1613,0.1763,0.1933,0.2181,0.2321,0.2432,0.2091,0.0663,-0.0352,-0.0586,-0.0919,-0.0986,-0.1089,-0.0751,-0.0703,-0.0657,-0.0794,-0.1125,-0.1127,-0.1657,-0.1663,-0.1668]}],[{"header":{"parameterUnit":"m.s-1","parameterCategory":2,"la1":30.2991,"la2":30.254,"lo1":-89.0895,"lo2":-89.0444,"dy":0.0017,"dx":0.0017,"nx":28,"ny":28,"refTime":"2025-09-16T09:00:00:Z","depth":"2","parameterNumber":2,"parameterNumberName":"U-component_of_CURRENTS"},"data":[0,0,0,0,0,0,0,0,0,0,0,0,0,0,0,0,0,0,0,0,0,0,0,0,0,0,0,0,0,0,0,0,0,0,0,0,0,0,0,0,0,0,0,0,0,0,0,0,0,0,0,0,0,0,0,0,0,0,0.1798,0.1798,0,0.1837,0.1837,0.1837,0.1827,0.1827,0.1826,0.1826,0.1777,0.1776,0.1775,0,0,0,0,0,0,0,0,0,0,0,0,0,0.1706,0.1708,0.1797,0.1798,0.1799,0.1837,0.1837,0.1837,0.1827,0.1827,0.1826,0.1826,0.1777,0.1776,0.1775,0,0,0,0,0,0,0,0,0,0,0,0,0,0.1743,0.1708,0.1797,0.1801,0.1802,0.1837,0.1837,0.1837,0.1827,0.1827,0.1826,0.1825,0.1777,0.1776,0.1775,0.1781,0,0,0.1771,0.177,0,0,0,0,0,0,0,0,0.1741,0.1746,0.18,0.1801,0.1802,0.1829,0.1787,0.1815,0.1828,0.1814,0.1826,0.1825,0.1789,0.1786,0.1792,0.1779,0.1777,0.1771,0.177,0.1769,0.1769,0,0,0,0,0,0,0,0.1738,0.1744,0.181,0.1801,0.1802,0.1798,0.1802,0.1792,0.1801,0.1815,0.1816,0.1825,0.1788,0.1793,0.1791,0.1776,0.1771,0.177,0.1769,0.1768,0.1805,0.1806,0,0,0,0,0,0,0.1741,0.1742,0.1809,0.1811,0.1772,0.1801,0.1805,0.1819,0.1803,0.1802,0.1826,0.1825,0.1796,0.1792,0.1789,0.1822,0.1769,0.1768,0.1767,0.1803,0.1805,0.1807,0,0,0,0,0,0,0.1739,0.1747,0.1807,0.1779,0.1787,0.1803,0.1818,0.182,0.1828,0.1813,0.1808,0.1833,0.1795,0.1791,0.1793,0.1819,0.1768,0.1766,0.1801,0.1804,0.1806,0.1872,0,0,0,0,0,0,0.1736,0.1746,0.1756,0.178,0.1789,0.1838,0.1819,0.1821,0.1837,0.1835,0.1818,0.1812,0.1794,0.1796,0.1792,0.1816,0.1765,0.1799,0.1802,0.1805,0.1867,0.1876,0.1884,0,0,0,0,0,0.1733,0.1748,0.1756,0.1765,0.1803,0.1839,0.1844,0.185,0.1838,0.1852,0.184,0.1813,0.1814,0.1796,0.1791,0.1816,0.1797,0.1801,0.1805,0.1864,0.1874,0.1884,0,0,0,0,0,0,0.1711,0.175,0.1759,0.1785,0.1816,0.1839,0.1852,0.1856,0.1859,0.1852,0.1829,0.1824,0.1838,0.1821,0.1802,0.1839,0.1804,0.1807,0.185,0.186,0.1868,0.1877,0.1764,0,0,0,0,0,0.1714,0.1736,0.1774,0.1796,0.1813,0.1834,0.1848,0.1856,0.1865,0.1866,0.1857,0.185,0.1852,0.185,0.1847,0.1862,0.1886,0.1879,0.1887,0.1894,0.1901,0.1981,0.1997,0.182,0.182,0.182,0,0,0.1709,0.1736,0.1747,0.1794,0.1815,0.1845,0.1839,0.1868,0.189,0.1858,0.1878,0.1874,0.1863,0.1885,0.189,0.1872,0.1959,0.1899,0.1905,0.1908,0.1987,0.2004,0.202,0.1822,0.1822,0.1821,0,0,0.1716,0.174,0.1762,0.1794,0.1837,0.1855,0.1866,0.1898,0.191,0.1934,0.192,0.1937,0.1934,0.1942,0.1942,0.1994,0.1999,0.1994,0.2041,0.2119,0.2135,0.2149,0.2208,0.2227,0.1999,0.1999,0.1999,0,0.1706,0.1745,0.1774,0.1808,0.1835,0.1861,0.1891,0.1913,0.1942,0.1963,0.1947,0.1984,0.1965,0.2007,0.2023,0.2013,0.2056,0.2001,0.2131,0.2145,0.2159,0.2216,0.2236,0.2002,0.2002,0.2002,0.2001,0,0.1733,0.1766,0.1784,0.1835,0.1868,0.1901,0.1941,0.1972,0.1986,0.2013,0.2062,0.206,0.2088,0.2086,0.2063,0.2147,0.2148,0.2133,0.2106,0.2181,0.2236,0.2255,0.2008,0.2006,0.2005,0.2004,0,0,0.1705,0.1785,0.1791,0.1825,0.1886,0.1918,0.1963,0.2022,0.2069,0.2097,0.2165,0.2169,0.2187,0.2189,0.2182,0.2235,0.2352,0.2225,0.2227,0.2284,0.2532,0.242,0.243,0.2372,0.2376,0.2379,0.2535,0,0.1716,0.178,0.1817,0.1877,0.1917,0.1962,0.2009,0.2066,0.2115,0.2189,0.2214,0.227,0.2223,0.2253,0.2302,0.2351,0.2406,0.2311,0.245,0.2454,0.2347,0.2449,0.2265,0.238,0.2554,0.2557,0.256,0,0.1732,0.1776,0.1836,0.1919,0.194,0.1977,0.2073,0.2122,0.2224,0.2268,0.2337,0.2371,0.2455,0.2405,0.2537,0.2487,0.2512,0.2537,0.2544,0.2429,0.2378,0.2333,0.2408,0.2592,0.2589,0.2587,0.2585,0,0.1715,0.1791,0.1839,0.1867,0.1961,0.1997,0.2046,0.2144,0.222,0.2336,0.2418,0.2504,0.2585,0.264,0.2672,0.2635,0.2814,0.2773,0.2694,0.2687,0.2548,0.2521,0.2866,0.2866,0.2866,0.2865,0.2865,0,0.1725,0.1769,0.1835,0.1869,0.1942,0.1997,0.2097,0.2161,0.2288,0.2387,0.2465,0.257,0.2655,0.2752,0.275,0.2788,0.2886,0.2727,0.2731,0.2563,0.2537,0.2723,0.2704,0.2871,0.287,0.2869,0.2868,0,0.1725,0.1765,0.1834,0.1915,0.1944,0.2001,0.2135,0.2203,0.2326,0.2466,0.2517,0.2684,0.28,0.2852,0.296,0.2897,0.293,0.2904,0.2686,0.2659,0.2733,0.2716,0.2866,0.2864,0.2862,0.286,0.2859,0,0.1733,0.1763,0.1859,0.189,0.1931,0.202,0.2077,0.221,0.2283,0.2518,0.2575,0.2759,0.2823,0.2945,0.2899,0.2896,0.293,0.2697,0.2567,0.275,0.274,0.2726,0.2712,0.2428,0.2423,0.242,0.2416,0,0.173,0.1764,0.1806,0.1869,0.1925,0.2017,0.21,0.2173,0.232,0.2441,0.2587,0.2669,0.2796,0.2721,0.2715,0.2673,0.2678,0.2612,0.2923,0.2425,0.2341,0.2328,0.2329,0.2381,0.2385,0.2387,0.2389,0.2391,0.1696,0.1719,0.1743,0.1814,0.1884,0.1944,0.1981,0.2071,0.2174,0.2271,0.2425,0.2454,0.2523,0.2403,0.2359,0.2337,0.2486,0.2369,0.2381,0.2397,0.2287,0.22,0.2194,0.2196,0.2198,0.22,0.2202,0,0.1596,0.1622,0.1673,0.1723,0.176,0.1846,0.1933,0.1936,0.1985,0.2082,0.2134,0.196,0.1949,0.2041,0.1958,0.1948,0.1926,0.1878,0.1846,0.1883,0.1916,0.1779,0.1554,0.1551,0.1549,0.1547,0,0,0.1517,0.1504,0.1543,0.1555,0.1615,0.1627,0.1659,0.169,0.1739,0.1683,0.1671,0.1767,0.1937,0.1672,0.1681,0.1619,0.1726,0.1558,0.2085,0.2084,0.2113,0.2216,0.2049,0,0,0,0,0]},{"header":{"parameterUnit":"m.s-1","parameterCategory":2,"la1":30.2991,"la2":30.254,"lo1":-89.0895,"lo2":-89.0444,"dy":0.0017,"dx":0.0017,"nx":28,"ny":28,"refTime":"2025-09-16T09:00:00:Z","depth":"2","parameterNumber":3,"parameterNumberName":"V-component_of_CURRENTS"},"data":[0,0,0,0,0,0,0,0,0,0,0,0,0,0,0,0,0,0,0,0,0,0,0,0,0,0,0,0,0,0,0,0,0,0,0,0,0,0,0,0,0,0,0,0,0,0,0,0,0,0,0,0,0,0,0,0,0,0,-0.0194,-0.0194,0,-0.0226,-0.0227,-0.0227,-0.0252,-0.0252,-0.0252,-0.0252,-0.0267,-0.0267,-0.0267,0,0,0,0,0,0,0,0,0,0,0,0,0,-0.0155,-0.0156,-0.0194,-0.0194,-0.0195,-0.0226,-0.0227,-0.0227,-0.0251,-0.0252,-0.0252,-0.0252,-0.0267,-0.0267,-0.0267,0,0,0,0,0,0,0,0,0,0,0,0,0,-0.0178,-0.0156,-0.0194,-0.0211,-0.0213,-0.0226,-0.0227,-0.0227,-0.0251,-0.0252,-0.0252,-0.0253,-0.0267,-0.0267,-0.0267,-0.0261,0,0,-0.0268,-0.0268,0,0,0,0,0,0,0,0,-0.0177,-0.0179,-0.0208,-0.021,-0.0212,-0.0236,-0.0219,-0.0238,-0.0251,-0.0236,-0.0252,-0.0253,-0.0255,-0.0256,-0.0261,-0.0262,-0.0262,-0.0268,-0.0268,-0.0268,-0.0268,0,0,0,0,0,0,0,-0.0175,-0.0178,-0.0206,-0.0208,-0.0211,-0.0218,-0.0222,-0.0222,-0.0242,-0.0238,-0.024,-0.0244,-0.0256,-0.0261,-0.0262,-0.0263,-0.0268,-0.0268,-0.0268,-0.0269,-0.0303,-0.0304,0,0,0,0,0,0,-0.0171,-0.0177,-0.0205,-0.0207,-0.0195,-0.0218,-0.0222,-0.0227,-0.0243,-0.0246,-0.0243,-0.0245,-0.026,-0.0261,-0.0262,-0.0274,-0.0268,-0.0269,-0.0269,-0.0302,-0.0303,-0.0304,0,0,0,0,0,0,-0.017,-0.0174,-0.0204,-0.0193,-0.0197,-0.0219,-0.0224,-0.0228,-0.0236,-0.0247,-0.025,-0.0249,-0.0261,-0.0262,-0.0273,-0.0274,-0.0269,-0.0269,-0.0301,-0.0302,-0.0304,-0.0286,0,0,0,0,0,0,-0.0169,-0.0173,-0.0173,-0.0193,-0.0198,-0.0206,-0.0224,-0.0228,-0.0238,-0.0241,-0.0253,-0.0254,-0.0261,-0.0272,-0.0273,-0.0274,-0.0269,-0.03,-0.0302,-0.0303,-0.0286,-0.0286,-0.0287,0,0,0,0,0,-0.0168,-0.0155,-0.0173,-0.0176,-0.0198,-0.0206,-0.0208,-0.0225,-0.0238,-0.0236,-0.0255,-0.0254,-0.0283,-0.0273,-0.0273,-0.0275,-0.03,-0.0301,-0.0303,-0.0285,-0.0286,-0.0287,0,0,0,0,0,0,-0.0127,-0.0157,-0.0177,-0.0172,-0.019,-0.021,-0.0206,-0.0224,-0.0238,-0.0241,-0.0258,-0.0261,-0.0272,-0.028,-0.0269,-0.0293,-0.0293,-0.0295,-0.028,-0.0281,-0.0281,-0.0274,-0.0269,0,0,0,0,0,-0.0123,-0.0128,-0.0157,-0.0153,-0.0161,-0.0188,-0.0193,-0.0208,-0.0224,-0.023,-0.0245,-0.0263,-0.0279,-0.0284,-0.0296,-0.0302,-0.0321,-0.0308,-0.0308,-0.0309,-0.0305,-0.0339,-0.0342,-0.031,-0.031,-0.031,0,0,-0.0105,-0.0123,-0.0125,-0.0146,-0.0161,-0.0165,-0.0191,-0.0196,-0.0203,-0.0228,-0.0239,-0.0262,-0.0283,-0.0295,-0.0301,-0.03,-0.0331,-0.0311,-0.0311,-0.0307,-0.0341,-0.0344,-0.0346,-0.0311,-0.0311,-0.0311,0,0,-0.007,-0.009,-0.0086,-0.0101,-0.0124,-0.0142,-0.0145,-0.0171,-0.0187,-0.0203,-0.023,-0.0257,-0.0273,-0.0296,-0.0308,-0.032,-0.0334,-0.0325,-0.0318,-0.0351,-0.0354,-0.0356,-0.0393,-0.0398,-0.0325,-0.0325,-0.0325,0,-0.0049,-0.0054,-0.0083,-0.0083,-0.0092,-0.0132,-0.0128,-0.0147,-0.0175,-0.0188,-0.0202,-0.0253,-0.0274,-0.0298,-0.0312,-0.032,-0.0342,-0.0309,-0.0351,-0.0353,-0.0356,-0.0393,-0.04,-0.0324,-0.0324,-0.0324,-0.0324,0,-0.0017,-0.0023,-0.0017,-0.004,-0.0049,-0.0051,-0.0085,-0.0099,-0.0129,-0.0154,-0.0188,-0.0229,-0.0257,-0.0278,-0.03,-0.0332,-0.0343,-0.0346,-0.0343,-0.0358,-0.0397,-0.0404,-0.0323,-0.0323,-0.0324,-0.0324,0,0,0.0025,0.0008,0.0006,-0.0,-0.003,-0.0033,-0.0046,-0.0071,-0.0071,-0.0124,-0.0131,-0.0197,-0.0226,-0.0244,-0.028,-0.0321,-0.0373,-0.0343,-0.0345,-0.0371,-0.045,-0.0443,-0.045,-0.0381,-0.0382,-0.0382,-0.0472,0,0.0052,0.0061,0.0044,0.005,0.0046,0.0013,0.0012,-0.0016,-0.0045,-0.0057,-0.0127,-0.0143,-0.021,-0.0219,-0.0276,-0.033,-0.039,-0.0349,-0.044,-0.0442,-0.0427,-0.0458,-0.042,-0.0495,-0.0479,-0.048,-0.0481,0,0.007,0.0074,0.0084,0.0083,0.0083,0.0084,0.0072,0.0068,0.0035,0.0016,-0.0031,-0.0068,-0.0136,-0.0185,-0.0314,-0.0283,-0.0374,-0.0434,-0.0439,-0.044,-0.0448,-0.0477,-0.0509,-0.0493,-0.0492,-0.0491,-0.049,0,0.0082,0.0094,0.0102,0.01,0.0099,0.0102,0.0103,0.0083,0.0101,0.0064,0.0081,-0.0013,-0.0027,-0.0161,-0.0291,-0.0302,-0.0428,-0.0452,-0.0544,-0.0545,-0.0535,-0.0532,-0.0566,-0.0566,-0.0566,-0.0566,-0.0566,0,0.009,0.0091,0.0112,0.0111,0.0145,0.013,0.0165,0.0151,0.0168,0.0206,0.0123,0.0143,-0.0021,-0.0104,-0.0261,-0.0412,-0.0409,-0.055,-0.0568,-0.0529,-0.0525,-0.0536,-0.0531,-0.0569,-0.0569,-0.0568,-0.0567,0,0.0067,0.008,0.0097,0.0124,0.0142,0.0158,0.022,0.0259,0.0258,0.0311,0.0311,0.0269,0.0157,-0.002,-0.0209,-0.0341,-0.0506,-0.0571,-0.0515,-0.0524,-0.0617,-0.0611,-0.0686,-0.0687,-0.0687,-0.0688,-0.0688,0,0.0044,0.0054,0.0111,0.015,0.016,0.0204,0.0257,0.0288,0.0347,0.0394,0.0436,0.0365,0.0319,0.005,-0.0195,-0.0463,-0.051,-0.0593,-0.0618,-0.062,-0.063,-0.0623,-0.0616,-0.0609,-0.0608,-0.0608,-0.0608,0,0.0022,0.0048,0.0081,0.0172,0.0234,0.031,0.0387,0.0458,0.0513,0.0569,0.0638,0.0608,0.0363,0.0134,-0.0212,-0.0392,-0.0546,-0.0595,-0.061,-0.0573,-0.0551,-0.0559,-0.0554,-0.0605,-0.0605,-0.0606,-0.0606,-0.0606,0.0022,0.0056,0.0137,0.0222,0.0306,0.0426,0.0516,0.0614,0.0733,0.0824,0.0771,0.0729,0.0456,0.0026,-0.0244,-0.0515,-0.054,-0.0642,-0.0641,-0.0641,-0.0605,-0.0584,-0.0638,-0.0639,-0.0639,-0.0639,-0.064,0,0.0066,0.0125,0.0197,0.0329,0.0442,0.0477,0.063,0.073,0.0896,0.0916,0.094,0.0667,0.0398,0.0095,-0.0298,-0.0551,-0.0571,-0.0623,-0.0593,-0.0595,-0.0597,-0.0557,-0.0579,-0.0579,-0.0579,-0.0579,0,0,0.0104,0.0202,0.0253,0.0451,0.0546,0.0723,0.0827,0.0949,0.101,0.1029,0.0986,0.0845,0.0484,0.021,-0.0134,-0.0338,-0.0402,-0.038,-0.0407,-0.0333,-0.0331,-0.0593,-0.0531,0,0,0,0,0]}],[{"header":{"parameterUnit":"m.s-1","parameterCategory":2,"la1":30.2991,"la2":30.254,"lo1":-89.0895,"lo2":-89.0444,"dy":0.0017,"dx":0.0017,"nx":28,"ny":28,"refTime":"2025-09-16T09:00:00:Z","depth":"4","parameterNumber":2,"parameterNumberName":"U-component_of_CURRENTS"},"data":[0,0,0,0,0,0,0,0,0,0,0,0,0,0,0,0,0,0,0,0,0,0,0,0,0,0,0,0,0,0,0,0,0,0,0,0,0,0,0,0,0,0,0,0,0,0,0,0,0,0,0,0,0,0,0,0,0,0,0.0794,0.0795,0,0.0884,0.0885,0.0885,0.0945,0.0946,0.0947,0.0948,0.1015,0.1016,0.1017,0,0,0,0,0,0,0,0,0,0,0,0,0,0.0696,0.0697,0.0793,0.0795,0.0797,0.0884,0.0885,0.0886,0.0945,0.0946,0.0947,0.0948,0.1015,0.1016,0.1017,0,0,0,0,0,0,0,0,0,0,0,0,0,0.0752,0.0697,0.0793,0.0841,0.0847,0.0884,0.0885,0.0886,0.0944,0.0946,0.0947,0.0949,0.1014,0.1016,0.1017,0.0998,0,0,0.1021,0.1022,0,0,0,0,0,0,0,0,0.0749,0.0755,0.0832,0.0838,0.0844,0.091,0.0876,0.0924,0.0944,0.0901,0.0948,0.0949,0.098,0.0985,0.0991,0.1001,0.1004,0.1021,0.1022,0.1023,0.1023,0,0,0,0,0,0,0,0.0745,0.0752,0.0824,0.0834,0.0841,0.0867,0.0876,0.0885,0.0927,0.0905,0.0911,0.093,0.0983,0.0989,0.0993,0.1005,0.1021,0.1023,0.1024,0.1024,0.1096,0.1097,0,0,0,0,0,0,0.0743,0.0748,0.0821,0.0827,0.0806,0.0868,0.0877,0.0883,0.0928,0.0938,0.0929,0.0932,0.0986,0.0991,0.0995,0.107,0.1023,0.1024,0.1025,0.1095,0.1097,0.1098,0,0,0,0,0,0,0.074,0.0748,0.0817,0.0795,0.0806,0.0869,0.0874,0.0884,0.0928,0.0947,0.0956,0.0967,0.0987,0.0993,0.104,0.107,0.1025,0.1026,0.1094,0.1096,0.1097,0.1159,0,0,0,0,0,0,0.0736,0.0745,0.0758,0.0794,0.0808,0.0858,0.0874,0.0885,0.0938,0.0944,0.0982,0.0988,0.0989,0.1038,0.1041,0.1071,0.1027,0.1093,0.1095,0.1097,0.1156,0.1163,0.1169,0,0,0,0,0,0.0732,0.0751,0.0757,0.0767,0.0818,0.086,0.0869,0.0914,0.0938,0.0958,0.0992,0.0988,0.1053,0.104,0.1044,0.1075,0.1092,0.1094,0.1096,0.1153,0.1162,0.1169,0,0,0,0,0,0,0.0719,0.0761,0.0768,0.0799,0.0832,0.0873,0.0906,0.0931,0.0973,0.0989,0.1005,0.1013,0.1063,0.1058,0.1043,0.11,0.107,0.1073,0.1112,0.112,0.1126,0.1118,0.1028,0,0,0,0,0,0.0718,0.0744,0.0779,0.0806,0.0826,0.0868,0.0896,0.0923,0.0963,0.0985,0.1011,0.1039,0.1067,0.1088,0.1103,0.1135,0.1128,0.1155,0.1162,0.1167,0.1163,0.1189,0.1198,0.1106,0.1106,0.1106,0,0,0.072,0.075,0.0763,0.0806,0.0838,0.0869,0.0888,0.094,0.0971,0.0983,0.1041,0.1064,0.1081,0.1121,0.1142,0.1128,0.119,0.117,0.1175,0.1167,0.1193,0.1202,0.121,0.1107,0.1107,0.1107,0,0,0.0734,0.0763,0.0784,0.0814,0.0868,0.0894,0.0916,0.0965,0.0997,0.1049,0.1068,0.1111,0.1152,0.1169,0.1183,0.1231,0.1224,0.1242,0.1272,0.1299,0.1306,0.1313,0.1318,0.1325,0.1246,0.1246,0.1246,0,0.0735,0.0765,0.0799,0.0827,0.086,0.0909,0.0938,0.0974,0.1033,0.1064,0.1077,0.1158,0.1172,0.1224,0.1244,0.1246,0.1255,0.1245,0.1308,0.1314,0.132,0.1323,0.133,0.125,0.1249,0.1249,0.1249,0,0.0754,0.0787,0.0811,0.0856,0.089,0.0933,0.0979,0.1023,0.1074,0.1111,0.1184,0.1209,0.1262,0.1271,0.1276,0.1329,0.132,0.1314,0.1289,0.1333,0.1334,0.1339,0.1254,0.1253,0.1252,0.1251,0,0,0.0735,0.0806,0.0817,0.0845,0.0913,0.0945,0.1002,0.1067,0.1122,0.1178,0.1238,0.1294,0.1327,0.1343,0.1357,0.1372,0.1423,0.1367,0.1367,0.1373,0.1477,0.142,0.1421,0.1439,0.144,0.1442,0.1461,0,0.0743,0.0791,0.083,0.0891,0.0921,0.0982,0.1032,0.1097,0.1162,0.123,0.1275,0.1345,0.135,0.1392,0.1412,0.1422,0.1441,0.1417,0.1431,0.1431,0.1377,0.1427,0.1446,0.1465,0.1467,0.1468,0.1468,0,0.0743,0.0783,0.0828,0.0913,0.0934,0.0985,0.1084,0.1135,0.1232,0.1284,0.136,0.1405,0.1462,0.145,0.1499,0.1491,0.1493,0.1485,0.1486,0.1412,0.1385,0.1411,0.1478,0.1477,0.1477,0.1476,0.1475,0,0.0705,0.0787,0.0825,0.0851,0.0946,0.0998,0.1066,0.1163,0.1216,0.1332,0.1388,0.1463,0.1514,0.1533,0.1553,0.1538,0.1579,0.1556,0.15,0.1495,0.1511,0.1503,0.158,0.158,0.158,0.158,0.158,0,0.0692,0.0727,0.0823,0.0848,0.0923,0.0994,0.108,0.1165,0.1263,0.1326,0.1428,0.1479,0.1542,0.1581,0.1573,0.1564,0.1612,0.1509,0.1503,0.1536,0.1531,0.1515,0.1507,0.1581,0.1581,0.1581,0.158,0,0.0628,0.0687,0.0738,0.0853,0.0904,0.0956,0.1091,0.1142,0.1263,0.1342,0.1388,0.1509,0.157,0.1611,0.1634,0.1594,0.1583,0.1565,0.1601,0.1596,0.1467,0.1463,0.1492,0.149,0.1489,0.1488,0.1487,0,0.0593,0.0608,0.0729,0.077,0.0833,0.0927,0.099,0.1129,0.1177,0.1343,0.1364,0.1485,0.1549,0.1542,0.1588,0.1587,0.1568,0.1553,0.15,0.147,0.1462,0.1459,0.1456,0.1484,0.1484,0.1483,0.1483,0,0.0524,0.0567,0.0616,0.07,0.0779,0.0846,0.0955,0.0989,0.1131,0.1245,0.1329,0.1391,0.1455,0.149,0.1521,0.1508,0.1557,0.1538,0.1539,0.1489,0.1462,0.1454,0.1453,0.1478,0.1479,0.1479,0.148,0,0.0474,0.0484,0.0556,0.0628,0.0707,0.0761,0.0827,0.0908,0.0986,0.1176,0.1191,0.1326,0.1427,0.1449,0.1465,0.1473,0.1439,0.1382,0.1391,0.1397,0.1362,0.1312,0.1283,0,0,0,0,0,0.0426,0.0441,0.0486,0.0566,0.0631,0.069,0.0798,0.0857,0.0997,0.1028,0.1115,0.1178,0.1257,0.1321,0.1308,0.1407,0.1428,0.1385,0.1363,0.1451,0.1456,0.1425,0,0,0,0,0,0,0.0395,0.0431,0.046,0.0498,0.0537,0.0609,0.0676,0.077,0.0795,0.0942,0.0987,0.1108,0.1188,0.1249,0.1284,0.1303,0.1266,0.1467,0.1465,0.1447,0.1453,0.1457,0.1427,0,0,0,0,0]},{"header":{"parameterUnit":"m.s-1","parameterCategory":2,"la1":30.2991,"la2":30.254,"lo1":-89.0895,"lo2":-89.0444,"dy":0.0017,"dx":0.0017,"nx":28,"ny":28,"refTime":"2025-09-16T09:00:00:Z","depth":"4","parameterNumber":3,"parameterNumberName":"V-component_of_CURRENTS"},"data":[0,0,0,0,0,0,0,0,0,0,0,0,0,0,0,0,0,0,0,0,0,0,0,0,0,0,0,0,0,0,0,0,0,0,0,0,0,0,0,0,0,0,0,0,0,0,0,0,0,0,0,0,0,0,0,0,0,0,0.0127,0.0126,0,0.0077,0.0076,0.0076,0.005,0.005,0.005,0.005,0.0023,0.0023,0.0022,0,0,0,0,0,0,0,0,0,0,0,0,0,0.0171,0.0171,0.0127,0.0126,0.0125,0.0077,0.0076,0.0076,0.005,0.005,0.005,0.005,0.0023,0.0023,0.0022,0,0,0,0,0,0,0,0,0,0,0,0,0,0.0141,0.017,0.0127,0.0106,0.0103,0.0077,0.0076,0.0076,0.005,0.005,0.005,0.0049,0.0024,0.0023,0.0022,0.002,0,0,0.0019,0.0019,0,0,0,0,0,0,0,0,0.0142,0.0139,0.011,0.0107,0.0104,0.0069,0.0082,0.0058,0.005,0.0071,0.005,0.0049,0.004,0.0038,0.003,0.0019,0.0018,0.0019,0.0019,0.0018,0.0018,0,0,0,0,0,0,0,0.0145,0.0141,0.0108,0.0109,0.0106,0.0089,0.0085,0.0077,0.0059,0.007,0.0067,0.006,0.0039,0.0031,0.0029,0.0018,0.0019,0.0018,0.0018,0.0018,-0.0018,-0.0018,0,0,0,0,0,0,0.015,0.0143,0.011,0.0106,0.0122,0.0088,0.0084,0.0081,0.0058,0.0054,0.006,0.0059,0.0032,0.003,0.0028,0.0022,0.0018,0.0018,0.0017,-0.0017,-0.0018,-0.0018,0,0,0,0,0,0,0.0152,0.0148,0.0112,0.0122,0.0117,0.0088,0.0085,0.008,0.0069,0.0051,0.0047,0.0053,0.0032,0.0029,0.0019,0.0021,0.0017,0.0016,-0.0017,-0.0017,-0.0018,0.0013,0,0,0,0,0,0,0.0153,0.0149,0.015,0.0123,0.0116,0.01,0.0085,0.0079,0.0064,0.0062,0.0044,0.0041,0.0032,0.0021,0.0018,0.002,0.0016,-0.0016,-0.0017,-0.0018,0.0012,0.0013,0.0014,0,0,0,0,0,0.0155,0.0157,0.0151,0.0147,0.0119,0.01,0.0096,0.0075,0.0064,0.0063,0.0047,0.0042,0.0014,0.002,0.0017,0.0019,-0.0016,-0.0017,-0.0018,0.0012,0.0013,0.0014,0,0,0,0,0,0,0.0175,0.0153,0.0146,0.0141,0.0125,0.0096,0.0091,0.0075,0.006,0.0059,0.004,0.0037,0.0026,0.0016,0.0023,0.0004,-0.0004,-0.0005,0.002,0.0021,0.0022,0.0023,0.0015,0,0,0,0,0,0.0181,0.0178,0.0154,0.015,0.0144,0.0118,0.0107,0.0093,0.0075,0.0067,0.0053,0.0036,0.002,0.0016,0.0002,-0.0003,-0.0038,-0.0007,-0.0006,-0.0005,-0.0007,-0.0071,-0.0076,-0.0021,-0.0021,-0.0021,0,0,0.0187,0.0175,0.0172,0.0155,0.014,0.0138,0.0111,0.0098,0.0097,0.0068,0.0064,0.004,0.0018,0.0009,0.0004,0.0003,-0.0038,-0.0006,-0.0005,-0.0008,-0.0073,-0.0078,-0.0083,-0.0022,-0.0022,-0.0022,0,0,0.0201,0.0188,0.0194,0.0185,0.0166,0.015,0.0148,0.0122,0.0111,0.0101,0.0076,0.005,0.0036,0.0015,0.0003,-0.0001,-0.0033,-0.0003,0.0008,-0.0053,-0.0059,-0.0063,-0.0106,-0.0115,0.0001,0.0001,0.0001,0,0.021,0.0215,0.0192,0.0197,0.0193,0.0159,0.0166,0.0151,0.0125,0.0112,0.0105,0.0051,0.0037,0.0009,0.001,0.0002,-0.0034,0.001,-0.0052,-0.0058,-0.0064,-0.0107,-0.0117,0.0002,0.0002,0.0002,0.0002,0,0.0231,0.0237,0.0238,0.0237,0.0229,0.0227,0.0206,0.0195,0.0174,0.015,0.0114,0.008,0.0043,0.0036,0.0027,-0.0018,-0.0031,-0.0046,-0.0053,-0.0067,-0.0111,-0.0123,0.0004,0.0003,0.0003,0.0003,0,0,0.0245,0.0253,0.0255,0.0262,0.0251,0.0242,0.0243,0.0222,0.0205,0.0173,0.0143,0.0109,0.007,0.0053,0.0025,-0.0022,-0.0084,-0.0044,-0.0048,-0.0082,-0.0214,-0.0183,-0.0193,-0.0113,-0.0115,-0.0117,-0.0225,0,0.0269,0.0292,0.0288,0.0305,0.0312,0.029,0.0289,0.0263,0.0231,0.0193,0.0138,0.0098,0.0083,0.0056,0.0008,-0.0068,-0.0114,-0.0053,-0.0199,-0.0203,-0.0171,-0.0205,-0.0123,-0.0234,-0.0237,-0.0239,-0.024,0,0.0291,0.0302,0.0329,0.0334,0.0334,0.0341,0.0316,0.0309,0.0253,0.0223,0.0166,0.0113,0.0042,0.0027,-0.0108,-0.0071,-0.0136,-0.0192,-0.0198,-0.0189,-0.0194,-0.0221,-0.0261,-0.0259,-0.0258,-0.0256,-0.0255,0,0.0301,0.0327,0.0349,0.0353,0.0355,0.0361,0.0357,0.0317,0.0302,0.0232,0.0201,0.0105,0.0052,-0.0052,-0.0152,-0.0145,-0.0303,-0.0311,-0.0345,-0.0344,-0.0351,-0.0344,-0.0411,-0.0411,-0.0411,-0.0411,-0.041,0,0.0318,0.0331,0.0359,0.0368,0.0385,0.038,0.0378,0.0356,0.0317,0.0293,0.0215,0.0168,0.0026,-0.0074,-0.0167,-0.0286,-0.032,-0.0353,-0.0376,-0.0333,-0.0324,-0.0358,-0.0351,-0.0415,-0.0414,-0.0413,-0.0412,0,0.031,0.0333,0.0357,0.0381,0.0391,0.0398,0.0406,0.0396,0.0361,0.0325,0.0303,0.0195,0.0064,-0.0067,-0.024,-0.0297,-0.0419,-0.0448,-0.0383,-0.04,-0.0416,-0.0405,-0.0516,-0.0516,-0.0516,-0.0516,-0.0515,0,0.0302,0.032,0.0366,0.0384,0.0397,0.0416,0.0427,0.0416,0.0407,0.0345,0.0326,0.0201,0.012,-0.0097,-0.0235,-0.042,-0.0431,-0.049,-0.0462,-0.0418,-0.043,-0.042,-0.041,-0.0515,-0.0515,-0.0515,-0.0515,0,0.0285,0.031,0.0333,0.0381,0.0409,0.0432,0.0452,0.0452,0.0435,0.0407,0.0339,0.0223,0.0082,-0.0087,-0.0225,-0.0353,-0.0456,-0.049,-0.0491,-0.0465,-0.042,-0.0429,-0.0419,-0.0515,-0.0515,-0.0515,-0.0515,0,0.0273,0.0286,0.0333,0.0367,0.0407,0.0438,0.0451,0.0452,0.0446,0.0396,0.0373,0.0226,0.0136,-0.0053,-0.0183,-0.0305,-0.0335,-0.0362,-0.037,-0.0372,-0.0288,-0.0206,-0.0267,0,0,0,0,0,0.0257,0.0276,0.0313,0.0356,0.0399,0.0423,0.046,0.047,0.0466,0.043,0.0406,0.0282,0.0086,-0.0009,-0.0128,-0.0193,-0.0365,-0.0335,-0.0401,-0.0515,-0.0515,-0.0438,0,0,0,0,0,0,0.0248,0.0283,0.0305,0.0346,0.037,0.0415,0.0441,0.0445,0.0428,0.041,0.0305,0.0259,0.0061,0.0147,-0.0133,-0.0172,-0.0226,-0.0431,-0.0433,-0.0515,-0.0515,-0.0515,-0.0436,0,0,0,0,0]}]]